Regional Weather Roundup
Issued by NWS Charleston, SC

Current Version | Previous Version | Graphics & Text | Print | Product List | Glossary On
Versions: 1 2 3 4 5 6 7 8 9 10 11 12 13 14 15 16 17 18 19 20 21 22 23 24 25 26 27 28 29 30 31 32 33 34 35 36 37 38 39 40 41 42 43 44 45 46 47 48 49 50
000 ASUS42 KCHS 020727 RWRCHS REGIONAL WEATHER ROUNDUP NATIONAL WEATHER SERVICE CHARLESTON SC 300 AM EDT WED SEP 02 2015 NOTE: "FAIR" INDICATES FEW OR NO CLOUDS BELOW 12,000 FEET WITH NO SIGNIFICANT WEATHER AND/OR OBSTRUCTIONS TO VISIBILITY. NOT ALL STATIONS ARE QUALITY CONTROLLED BY THE NATIONAL WEATHER SERVICE. USE DATA WITH CAUTION...ESPECIALLY DEWPOINT OBSERVATIONS. SCZ027-030-031-034>040-042>050-020800- ...SOUTHEAST SOUTH CAROLINA... CITY SKY/WX TMP DP RH WIND PRES REMARKS N CHARLESTON MOCLDY 77 74 90 CALM 30.06F WATERFRONT PRK N/A 80 77 90 CALM 30.04F MOUNT PLEASANT LGT RAIN 75 75 100 CALM 30.06F JOHNS ISLAND FAIR 77 75 94 CALM 30.06S PINOPOLIS N/A 81 75 83 VRB3 29.99F MONCKS CORNER FAIR 75 72 88 CALM 30.06F SUMMERVILLE FAIR 72 72 100 CALM 30.07F BEAUFORT MCAS MOCLDY 76 75 97 CALM 30.06F BEAUFORT ARPT FAIR 77 77 100 CALM 30.05F HILTON HEAD IS NOT AVBL WALTERBORO MOSUNNY 75 72 88 CALM 30.07F ALLENDALE FAIR 73 73 100 CALM 30.06F ...SOUTHERN MIDLANDS AND PEE DEE... CITY SKY/WX TMP DP RH WIND PRES REMARKS GEORGETOWN NOT AVBL KINGSTREE NOT AVBL ORANGEBURG CLEAR 74 72 93 CALM 30.08F BARNWELL FAIR 73 72 94 CALM 30.08F AIKEN FAIR 70 68 94 CALM 30.12F MANNING FAIR 72 72 100 CALM 30.07F COLUMBIA CLEAR 74 69 85 W3 30.08S SUMTER CLEAR 74 72 92 SW5 30.06F FLORENCE CLEAR 75 73 93 W5 30.07F MYRTLE BEACH PTCLDY 75 70 83 CALM 30.09S N MYRTLE BEACH CLEAR 75 72 90 W5 30.07S $$ GAZ063-065-086>088-099>101-113>116-118-119-134>141-150-020800- ...SOUTHEAST GEORGIA... CITY SKY/WX TMP DP RH WIND PRES REMARKS SAVANNAH ARPT MOCLDY 76 74 93 CALM 30.06F HUNTER AAF MOCLDY 76 76 100 CALM 30.03F FORT STEWART PTCLDY 75 73 94 CALM 30.04F STATESBORO PTCLDY 73 32 21 CALM 30.07S SYLVANIA FOG 75 75 100 CALM 30.08S VSB 1 CLAXTON NOT AVBL ...CSRA...CENTRAL AND FAR SOUTHEAST GEORGIA... CITY SKY/WX TMP DP RH WIND PRES REMARKS THOMSON PTCLDY 71 71 100 CALM 30.13S AUGUSTA-BUSH PTCLDY 70 70 100 CALM 30.07F AUGUSTA-DANIEL PTCLDY 77 71 82 CALM 30.09F SWAINSBORO FAIR N/A N/A N/A CALM 30.08F VIDALIA PTCLDY 75 73 94 CALM 30.07S EASTMAN FOG 72 72 100 CALM 30.09F VSB 1/2 HAZLEHURST FAIR 76 76 100 CALM 30.05F ALMA MOCLDY 74 74 100 CALM 30.06F FOG WAYCROSS CLOUDY 80 79 99 SE5 30.05F JESUP FAIR 77 75 94 CALM 30.06S BAXLEY FAIR 77 75 94 CALM 30.05F BRUNSWICK MOCLDY 73 73 100 CALM 30.05F SAINT SIMONS PTCLDY 78 76 93 S3 30.06F $$ SCZ027-028-034-036>038-045-046-048>050-GAZ119-141-020800- ...LAKE AND SUPPLEMENTAL COASTAL OBSERVATIONS... STATION/POSITION TIME TEMP WIND PRES WAVE SWELL AIR SEA DIR/SP/G HT/PER HT/PER/DIR (UTC) (F) (DEG/KT/KT) (MB) (FT/S) (FT/S/D) UPR LAKE MARION NOT AVBL WINYAH BAY 0600 77 300/ 1 1018.0S LAKE MURRAY 0600 80 250/ 1/ 4 1017.9F ACE BASIN NERRS NOT AVBL FORT PULASKI 0700 80 83 200/ 2/ 4 1018.3F SAPELO ISLAND 0600 77 90/ 1 1018.0F $$ ANZ835-935-AMZ111-154-330-350-352-354-370-450-454-472-020800- ...C-MAN AND BUOY OBSERVATIONS... STATION/POSITION TIME TEMP WIND PRES WAVE SWELL AIR SEA DIR/SP/G HT/PER HT/PER/DIR (UTC) (F) (DEG/KT/KT) (MB) (FT/S) (FT/S/D) BUOY 41004 0650 83 83 210/ 8/ 8 1017.7F 3/ 7 2/ 7 BUOY 41008 0650 82 84 180/ 8/ 8 1017.9F 2/ 8 2/110/ 8 FOLLY BEACH CMAN 0700 80 CALM / 1 1017.9F CAPERS NEARSHORE 0608 82 220/ 6/ 10 1018.4F FRIPP NEARSHORE 0600 82 200/ 8/ 10 1017.9F STATION/POSITION TIME TEMP WIND PRES WAVE SWELL AIR SEA DIR/SP/G HT/PER HT/PER/DIR (UTC) (F) (DEG/KT/KT) (MB) (FT/S) (FT/S/D) 5E ST. MARYS GA 0621 85 N/A 2/ 8 FRYING PAN BUOY 0650 82 81 240/ 8/ 10 1018.5F 1/10 2/ 80/10 BUOY 41025 0650 80 83 280/ 8/ 10 1017.7F 2/ 9 2/110/ 9 CAPE LOOKOUT NC 0700 79 280/ 9/ 10 1017.4F BUOY 41002 0650 84 84 290/ 10/ 12 1017.8F 3/ 5 3/240/ 5 BUOY 41010 0620 84 86 120/ 4/ 6 1018.4F ST AUGUSTINE FL 0700 83 83 160/ 8/ 9 1018.4F $$

USA.gov is the U.S. government's official web portal to all federal, state and local government web resources and services.